Hourly Data Report for December 04, 2003

TORONTO CITY
ONTARIO

43°40'00.000" N
79°24'00.000" W
112.50 m
6158355
71508
XTO

Download Data

Hourly Data (December 2003)
Hourly Data Report for December 4, 2003
TIME
LST
Temp Definition
°C
Dew Point Definition
°C
Rel Hum Definition
%
Precip. Amount Definition
mm

Wind Dir Definition
10's deg

Wind Spd Definition
km/h
Visibility Definition
km
Stn Press Definition
kPa
Hmdx Definition


Wind Chill Definition


Weather Definition


00:00 -1.6 -5.7 74   LegendMM LegendMM LegendMM 101.65     LegendNANA
01:00 -1.9 -6.5 71   LegendMM LegendMM LegendMM 101.67     LegendNANA
02:00 -2.1 -6.9 70   LegendMM LegendMM LegendMM 101.66     LegendNANA
03:00 -2.0 -6.6 71   LegendMM LegendMM LegendMM 101.66     LegendNANA
04:00 -2.0 -6.6 71   LegendMM LegendMM LegendMM 101.63     LegendNANA
05:00 -2.8 -7.0 73   LegendMM LegendMM LegendMM 101.60     LegendNANA
06:00 -2.3 -6.6 72   LegendMM LegendMM LegendMM 101.61     LegendNANA
07:00 -3.1 -7.0 74   LegendMM LegendMM LegendMM 101.60     LegendNANA
08:00 -2.9 -6.6 76   LegendMM LegendMM LegendMM 101.59     LegendNANA
09:00 -1.1 -5.2 74   LegendMM LegendMM LegendMM 101.59     LegendNANA
10:00 1.4 -3.9 68   LegendMM LegendMM LegendMM 101.61     LegendNANA
11:00 3.3 -2.9 64   LegendMM LegendMM LegendMM 101.58     LegendNANA
12:00 4.3 -2.2 63   LegendMM LegendMM LegendMM 101.50     LegendNANA
13:00 4.4 -1.9 64   LegendMM LegendMM LegendMM 101.45     LegendNANA
14:00 4.0 -2.5 63   LegendMM LegendMM LegendMM 101.43     LegendNANA
15:00 4.0 -2.9 61   LegendMM LegendMM LegendMM 101.40     LegendNANA
16:00 2.8 -1.5 73   LegendMM LegendMM LegendMM 101.39     LegendNANA
17:00 2.6 -1.3 75   LegendMM LegendMM LegendMM 101.37     LegendNANA
18:00 2.5 -1.4 75   LegendMM LegendMM LegendMM 101.35     LegendNANA
19:00 2.5 -1.6 74   LegendMM LegendMM LegendMM 101.35     LegendNANA
20:00 2.2 -1.7 75   LegendMM LegendMM LegendMM 101.29     LegendNANA
21:00 1.5 -2.4 75   LegendMM LegendMM LegendMM 101.28     LegendNANA
22:00 1.6 -2.1 76   LegendMM LegendMM LegendMM 101.26     LegendNANA
23:00 2.4 -1.5 75   LegendMM LegendMM LegendMM 101.22     LegendNANA

Notes on Data Quality.

Legend

  • E = Estimated
  • M = Missing
  • NA = Not Available*
  • [empty] = Indicates an unobserved value
Date modified: